EWG5XV EDDL-EDDH

Flight info

Callsign EWG5XV
Flight time N/A
Altitude 35000
Route MEVEL1Z MEVEL Y850 BASUM/N0447F340 Y850 PIXUR/N0449F330 Y850 MUBZI M105 RIBSO RIBSO7A
Aircraft A319/M-SDE3FGHIRWY/LB1

Departure

Time 2026-04-30 18:35
Airport Düsseldorf Airport (EDDL)

Arrival

Time N/A
Airport Hamburg Helmut Schmidt Airport (EDDH)
Time Latitude Longitude Altitude Speed Heading
2026-04-30 18:07 51.28106 6.76718 129 ft 0 kts 276°
2026-04-30 18:25 51.28104 6.76744 124 ft 4 kts 282°
2026-04-30 18:25 51.28078 6.76799 125 ft 2 kts 14°
2026-04-30 18:25 51.28076 6.76798 125 ft 0 kts 15°
2026-04-30 18:28 51.28082 6.76801 125 ft 2 kts 14°
2026-04-30 18:29 51.28110 6.76811 127 ft 4 kts 12°
2026-04-30 18:29 51.28260 6.76852 129 ft 12 kts
2026-04-30 18:30 51.28421 6.76808 124 ft 16 kts 320°
2026-04-30 18:30 51.28389 6.76566 123 ft 15 kts 233°
2026-04-30 18:31 51.28323 6.76429 126 ft 13 kts 233°
2026-04-30 18:31 51.28214 6.76200 126 ft 13 kts 232°
2026-04-30 18:32 51.28223 6.76054 128 ft 2 kts 326°
2026-04-30 18:32 51.28234 6.76043 124 ft 0 kts 326°
2026-04-30 18:33 51.28236 6.76041 125 ft 2 kts 326°
2026-04-30 18:34 51.28260 6.76015 127 ft 6 kts 326°
2026-04-30 18:34 51.28338 6.75989 128 ft 10 kts 44°
2026-04-30 18:34 51.28489 6.76295 128 ft 66 kts 53°
2026-04-30 18:35 51.28896 6.77159 127 ft 127 kts 52°
2026-04-30 18:35 51.29495 6.78448 477 ft 148 kts 57°
2026-04-30 18:35 51.30113 6.79759 1258 ft 147 kts 58°
2026-04-30 18:36 51.31477 6.82672 2121 ft 184 kts 59°
2026-04-30 18:36 51.32301 6.84421 2519 ft 209 kts 58°
2026-04-30 18:36 51.34235 6.88569 3834 ft 250 kts 58°
2026-04-30 18:37 51.35580 6.90437 4761 ft 270 kts 29°
2026-04-30 18:37 51.37448 6.91195 5750 ft 281 kts 14°
2026-04-30 18:37 51.39381 6.91713 6827 ft 283 kts 14°
2026-04-30 18:37 51.41254 6.92618 7756 ft 280 kts 33°
2026-04-30 18:38 51.42888 6.94283 8736 ft 279 kts 38°
2026-04-30 18:38 51.44496 6.95993 9716 ft 282 kts 38°
2026-04-30 18:38 51.46138 6.97746 10612 ft 287 kts 38°
2026-04-30 18:38 51.47869 6.99605 10958 ft 311 kts 38°
2026-04-30 18:39 51.49726 7.01609 11285 ft 331 kts 38°
2026-04-30 18:39 51.51673 7.03701 11931 ft 339 kts 37°
2026-04-30 18:39 51.53653 7.05815 12688 ft 344 kts 37°
2026-04-30 18:39 51.55654 7.07945 13468 ft 347 kts 37°
2026-04-30 18:40 51.57679 7.10103 14219 ft 351 kts 37°
2026-04-30 18:40 51.59719 7.12284 14881 ft 354 kts 37°
2026-04-30 18:40 51.61778 7.14491 15565 ft 357 kts 37°
2026-04-30 18:40 51.63854 7.16724 16239 ft 360 kts 37°
2026-04-30 18:41 51.65944 7.18977 16912 ft 363 kts 37°
2026-04-30 18:41 51.68049 7.21252 17575 ft 367 kts 37°
2026-04-30 18:41 51.70181 7.23558 18253 ft 370 kts 37°
2026-04-30 18:41 51.72327 7.25882 18891 ft 373 kts 37°
2026-04-30 18:42 51.74493 7.28229 19462 ft 377 kts 37°
2026-04-30 18:42 51.78872 7.32976 20706 ft 382 kts 37°
2026-04-30 18:42 51.81084 7.35382 21284 ft 385 kts 37°
2026-04-30 18:45 52.04249 7.60659 26082 ft 416 kts 33°
2026-04-30 18:45 52.06731 7.63111 26509 ft 419 kts 32°
2026-04-30 18:45 52.09266 7.65469 26940 ft 421 kts 31°
2026-04-30 18:46 52.11834 7.67788 27371 ft 423 kts 30°
2026-04-30 18:46 52.14429 7.70125 27791 ft 426 kts 30°
2026-04-30 18:46 52.17024 7.72488 28213 ft 428 kts 31°
2026-04-30 18:46 52.19617 7.74889 28618 ft 430 kts 31°
2026-04-30 18:47 52.22217 7.77331 29027 ft 432 kts 31°
2026-04-30 18:47 52.24822 7.79801 29409 ft 435 kts 31°
2026-04-30 18:47 52.27440 7.82296 29799 ft 436 kts 31°
2026-04-30 18:47 52.30035 7.84771 30180 ft 439 kts 31°
2026-04-30 18:48 52.32682 7.87291 30541 ft 440 kts 31°
2026-04-30 18:48 52.35334 7.89813 30848 ft 443 kts 30°
2026-04-30 18:48 52.38009 7.92351 31148 ft 445 kts 30°
2026-04-30 18:48 52.40687 7.94890 31514 ft 445 kts 30°
2026-04-30 18:49 52.43364 7.97436 31966 ft 443 kts 30°
2026-04-30 18:49 52.46020 7.99969 32459 ft 441 kts 30°
2026-04-30 18:49 52.48663 8.02496 32901 ft 436 kts 30°
2026-04-30 18:49 52.51259 8.04979 32618 ft 430 kts 30°
2026-04-30 18:50 52.53838 8.07447 31946 ft 430 kts 30°
2026-04-30 18:50 52.56431 8.09932 31175 ft 431 kts 30°
2026-04-30 18:50 52.59030 8.12428 30361 ft 433 kts 30°
2026-04-30 18:50 52.61643 8.14947 29397 ft 435 kts 31°
2026-04-30 18:51 52.64242 8.17457 28467 ft 434 kts 31°
2026-04-30 18:51 52.66860 8.19989 27438 ft 437 kts 31°
2026-04-30 18:51 52.69471 8.22511 26637 ft 434 kts 31°
2026-04-30 18:51 52.72066 8.25015 25902 ft 430 kts 31°
2026-04-30 18:52 52.74644 8.27512 25526 ft 428 kts 31°
2026-04-30 18:52 52.77211 8.30003 25380 ft 427 kts 31°
2026-04-30 18:52 52.79772 8.32494 25411 ft 428 kts 31°
2026-04-30 18:52 52.82337 8.34992 25409 ft 428 kts 31°
2026-04-30 18:53 52.84903 8.37495 25407 ft 428 kts 31°
2026-04-30 18:53 52.87472 8.40002 25411 ft 428 kts 31°
2026-04-30 18:53 52.90025 8.42491 25059 ft 422 kts 31°
2026-04-30 18:53 52.92544 8.44952 24387 ft 419 kts 31°
2026-04-30 18:54 52.95009 8.47369 23691 ft 415 kts 32°
2026-04-30 18:54 52.97481 8.49801 22917 ft 411 kts 32°
2026-04-30 18:54 52.99929 8.52209 22164 ft 406 kts 32°
2026-04-30 18:54 53.02350 8.54588 21432 ft 402 kts 32°
2026-04-30 18:55 53.04749 8.56946 20727 ft 398 kts 32°
2026-04-30 18:55 53.09476 8.61606 19403 ft 392 kts 33°
2026-04-30 18:55 53.11806 8.63911 18795 ft 388 kts 33°
2026-04-30 18:56 53.16407 8.68481 17598 ft 380 kts 33°
2026-04-30 18:56 53.18692 8.70755 17600 ft 384 kts 33°
2026-04-30 18:56 53.21122 8.72597 17603 ft 387 kts 18°
2026-04-30 18:57 53.26491 8.71903 17615 ft 403 kts 339°
2026-04-30 18:57 53.28852 8.69332 17614 ft 410 kts 320°
2026-04-30 18:57 53.30624 8.65566 17612 ft 416 kts 300°
2026-04-30 18:58 53.32287 8.56330 17610 ft 420 kts 284°
2026-04-30 18:58 53.32940 8.51574 17609 ft 420 kts 284°
2026-04-30 18:58 53.33588 8.46819 17608 ft 420 kts 284°
2026-04-30 18:59 53.34882 8.37279 17607 ft 420 kts 284°
2026-04-30 19:00 53.36812 8.22983 17607 ft 420 kts 283°
2026-04-30 19:00 53.37471 8.18208 17606 ft 420 kts 284°
2026-04-30 19:00 53.38790 8.08668 17607 ft 421 kts 284°
2026-04-30 19:01 53.40110 7.99112 17611 ft 420 kts 284°
2026-04-30 19:01 53.40767 7.94343 17609 ft 420 kts 284°
2026-04-30 19:02 53.42081 7.84790 17610 ft 420 kts 284°
2026-04-30 19:02 53.43393 7.75234 17610 ft 420 kts 284°
2026-04-30 19:03 53.45029 7.65850 17582 ft 419 kts 300°
2026-04-30 19:03 53.49117 7.59248 17581 ft 410 kts 336°
2026-04-30 19:04 53.54522 7.57514 17340 ft 394 kts
2026-04-30 19:04 53.59438 7.60747 16054 ft 376 kts 40°
2026-04-30 19:05 53.62545 7.67564 15395 ft 368 kts 69°
2026-04-30 19:05 53.63764 7.75891 15409 ft 367 kts 80°
2026-04-30 19:06 53.64758 7.84311 15413 ft 366 kts 80°
2026-04-30 19:06 53.65250 7.88535 15418 ft 366 kts 80°
2026-04-30 19:06 53.66230 7.96953 15421 ft 366 kts 80°
2026-04-30 19:07 53.67200 8.05325 15425 ft 366 kts 80°
2026-04-30 19:07 53.67685 8.09543 15432 ft 366 kts 80°
2026-04-30 19:08 53.68650 8.17976 15433 ft 366 kts 80°
2026-04-30 19:08 53.69611 8.26415 15434 ft 366 kts 80°
2026-04-30 19:08 53.70088 8.30631 15434 ft 366 kts 80°
2026-04-30 19:09 53.71036 8.39079 15437 ft 366 kts 80°
2026-04-30 19:09 53.71504 8.43294 15437 ft 366 kts 80°
2026-04-30 19:09 53.71973 8.47512 15437 ft 366 kts 79°
2026-04-30 19:10 53.72912 8.55951 15437 ft 365 kts 79°
2026-04-30 19:10 53.73842 8.64334 15437 ft 365 kts 80°
2026-04-30 19:11 53.74306 8.68549 15437 ft 365 kts 80°
2026-04-30 19:11 53.75229 8.76998 15437 ft 365 kts 80°
2026-04-30 19:11 53.75687 8.81223 15437 ft 365 kts 80°
2026-04-30 19:12 53.76142 8.85448 15435 ft 365 kts 80°
2026-04-30 19:12 53.76595 8.89669 15437 ft 365 kts 80°
2026-04-30 19:12 53.77049 8.93888 15434 ft 365 kts 79°
2026-04-30 19:13 53.77953 9.02338 15435 ft 365 kts 80°
2026-04-30 19:13 53.78700 9.09360 15437 ft 365 kts 80°
2026-04-30 19:13 53.79147 9.13589 15437 ft 365 kts 80°
2026-04-30 19:14 53.79587 9.17749 15432 ft 350 kts 80°
2026-04-30 19:14 53.80000 9.21679 15434 ft 329 kts 80°
2026-04-30 19:14 53.80384 9.25385 15438 ft 311 kts 80°
2026-04-30 19:14 53.80749 9.28885 15436 ft 294 kts 80°
2026-04-30 19:15 53.81097 9.32219 15436 ft 279 kts 80°
2026-04-30 19:15 53.81600 9.38416 15305 ft 258 kts 93°
2026-04-30 19:15 53.81145 9.41316 15079 ft 257 kts 115°
2026-04-30 19:16 53.80064 9.43673 14809 ft 261 kts 136°
2026-04-30 19:16 53.78456 9.45150 14511 ft 269 kts 161°
2026-04-30 19:16 53.74727 9.44188 14442 ft 287 kts 205°
2026-04-30 19:17 53.72980 9.42537 14440 ft 288 kts 207°
2026-04-30 19:17 53.69600 9.38891 14425 ft 291 kts 224°
2026-04-30 19:17 53.68564 9.35964 14433 ft 294 kts 253°
2026-04-30 19:18 53.68880 9.30414 14433 ft 290 kts 302°
2026-04-30 19:18 53.70761 9.27356 14434 ft 279 kts 340°
2026-04-30 19:18 53.72601 9.26624 14438 ft 269 kts
2026-04-30 19:19 53.74388 9.27271 14435 ft 260 kts 29°
2026-04-30 19:19 53.75989 9.28696 14436 ft 260 kts 33°
2026-04-30 19:19 53.79105 9.31791 14438 ft 260 kts 35°
2026-04-30 19:20 53.80655 9.33357 14439 ft 260 kts 34°
2026-04-30 19:20 53.82114 9.35112 14432 ft 255 kts 50°
2026-04-30 19:20 53.83150 9.40562 14437 ft 251 kts 98°
2026-04-30 19:21 53.82534 9.43280 14437 ft 255 kts 122°
2026-04-30 19:21 53.79461 9.46214 14053 ft 272 kts 175°
2026-04-30 19:22 53.75892 9.43902 13467 ft 281 kts 207°
2026-04-30 19:22 53.70830 9.38811 13432 ft 283 kts 213°
2026-04-30 19:23 53.69924 9.29817 13438 ft 284 kts 309°
2026-04-30 19:24 53.73197 9.27004 13434 ft 265 kts
2026-04-30 19:24 53.74930 9.27769 13439 ft 256 kts 31°
2026-04-30 19:24 53.78033 9.30744 13437 ft 256 kts 34°
2026-04-30 19:25 53.82419 9.35774 13434 ft 251 kts 58°
2026-04-30 19:26 53.82976 9.41346 13434 ft 249 kts 106°
2026-04-30 19:26 53.80650 9.45524 13439 ft 264 kts 157°
2026-04-30 19:26 53.78801 9.45829 13440 ft 275 kts 186°
2026-04-30 19:27 53.75323 9.42929 13251 ft 282 kts 207°